UAL24A KIAH-LEBL

Flight info

Callsign UAL24A
Flight time N/A
Altitude 33000
Route GUMBY3 LCH DCT LSU DCT GCV DCT MGM DCT HRTWL/N0483F350 Q64 TYI DCT ORF AR9 ZIBUT DCT LARGE DCT JENYY DCT DOVEY/M084F360 NATW 42N060W/M084F350 NATW ATSUR/M084F370 DCT TULTA/N0488F370 DCT NENEM DCT BADRU DCT BAGAS DCT PODUX DCT PPN DCT TURPU DCT GOSVI DCT RONKO DCT RONNY DCT SURCO DCT MARIO DCT POSSY DCT GRAUS
Aircraft B77W/H-SDE1E2E3FGHIJ2J3J4J5M1RWXY/LB1D1

Departure

Time 2026-05-05 01:04
Airport George Bush Intercontinental Airport (KIAH)

Arrival

Time N/A
Airport Josep Tarradellas Barcelona-El Prat Airport (LEBL)
Time Latitude Longitude Altitude Speed Heading
2026-05-05 00:48 29.98363 -95.33547 112 ft 0 kts 30°
2026-05-05 00:51 29.98362 -95.33547 112 ft 0 kts 30°
2026-05-05 00:54 29.98352 -95.33554 108 ft 4 kts 21°
2026-05-05 00:54 29.98328 -95.33559 109 ft 2 kts
2026-05-05 00:54 29.98306 -95.33557 109 ft 4 kts 323°
2026-05-05 00:55 29.98297 -95.33535 109 ft 4 kts 262°
2026-05-05 00:55 29.98301 -95.33507 108 ft 1 kts 271°
2026-05-05 00:55 29.98301 -95.33505 108 ft 10 kts 271°
2026-05-05 00:58 29.98301 -95.33513 108 ft 2 kts 271°
2026-05-05 00:58 29.98301 -95.33541 109 ft 6 kts 272°
2026-05-05 00:58 29.98306 -95.33650 111 ft 22 kts 276°
2026-05-05 00:59 29.98319 -95.33856 110 ft 26 kts 271°
2026-05-05 00:59 29.98351 -95.34049 110 ft 24 kts 296°
2026-05-05 00:59 29.98377 -95.34232 112 ft 24 kts 269°
2026-05-05 00:59 29.98369 -95.34414 109 ft 22 kts 253°
2026-05-05 01:00 29.98324 -95.34584 109 ft 22 kts 268°
2026-05-05 01:00 29.98324 -95.34762 109 ft 22 kts 270°
2026-05-05 01:00 29.98324 -95.34934 109 ft 21 kts 270°
2026-05-05 01:00 29.98324 -95.35104 109 ft 20 kts 270°
2026-05-05 01:01 29.98314 -95.35196 109 ft 6 kts 231°
2026-05-05 01:01 29.98290 -95.35236 110 ft 6 kts 248°
2026-05-05 01:01 29.98310 -95.35278 109 ft 7 kts 323°
2026-05-05 01:01 29.98350 -95.35304 109 ft 7 kts 333°
2026-05-05 01:02 29.98391 -95.35328 109 ft 7 kts 333°
2026-05-05 01:02 29.98457 -95.35370 110 ft 22 kts 331°
2026-05-05 01:02 29.98640 -95.35483 109 ft 31 kts 332°
2026-05-05 01:02 29.98809 -95.35592 110 ft 25 kts 319°
2026-05-05 01:03 29.98775 -95.35748 111 ft 23 kts 207°
2026-05-05 01:03 29.98637 -95.35695 110 ft 21 kts 153°
2026-05-05 01:03 29.98496 -95.35608 110 ft 32 kts 152°
2026-05-05 01:03 29.98054 -95.35339 111 ft 113 kts 152°
2026-05-05 01:04 29.97137 -95.34778 111 ft 183 kts 152°
2026-05-05 01:04 29.94687 -95.33134 1211 ft 206 kts 146°
2026-05-05 01:04 29.93737 -95.31819 1886 ft 229 kts 116°
2026-05-05 01:05 29.93518 -95.29964 2758 ft 234 kts 91°
2026-05-05 01:05 29.93644 -95.28088 3260 ft 247 kts 91°
2026-05-05 01:05 29.93681 -95.26044 3609 ft 259 kts 96°
2026-05-05 01:05 29.93631 -95.23955 4225 ft 264 kts 91°
2026-05-05 01:06 29.93687 -95.21780 4664 ft 279 kts 90°
2026-05-05 01:06 29.93755 -95.19515 5271 ft 287 kts 90°
2026-05-05 01:06 29.93806 -95.17192 5924 ft 292 kts 89°
2026-05-05 01:06 29.93847 -95.14824 6565 ft 299 kts 89°
2026-05-05 01:07 29.93884 -95.12423 7309 ft 298 kts 89°
2026-05-05 01:07 29.93919 -95.10014 7965 ft 303 kts 88°
2026-05-05 01:07 29.93957 -95.07576 8649 ft 305 kts 87°
2026-05-05 01:07 29.94084 -95.05120 9348 ft 308 kts 84°
2026-05-05 01:08 29.94275 -95.02643 10002 ft 312 kts 83°
2026-05-05 01:08 29.94482 -95.00126 10482 ft 323 kts 83°
2026-05-05 01:08 29.94702 -94.97453 10631 ft 346 kts 83°
2026-05-05 01:08 29.94931 -94.94608 10804 ft 368 kts 83°
2026-05-05 01:09 29.95168 -94.91588 10976 ft 388 kts 83°
2026-05-05 01:09 29.95409 -94.88428 11380 ft 401 kts 83°
2026-05-05 01:09 29.95649 -94.85241 11917 ft 408 kts 83°
2026-05-05 01:09 29.95895 -94.81917 12591 ft 412 kts 83°
2026-05-05 01:10 29.96135 -94.78654 13273 ft 416 kts 83°
2026-05-05 01:10 29.96381 -94.75315 13902 ft 420 kts 83°
2026-05-05 01:10 29.96629 -94.71927 14444 ft 426 kts 83°
2026-05-05 01:10 29.96881 -94.68493 14998 ft 431 kts 83°
2026-05-05 01:11 29.97134 -94.65028 15549 ft 436 kts 82°
2026-05-05 01:11 29.97389 -94.61523 16101 ft 441 kts 82°
2026-05-05 01:11 29.97647 -94.57968 16657 ft 446 kts 82°
2026-05-05 01:11 29.97906 -94.54372 17206 ft 452 kts 82°
2026-05-05 01:12 29.98164 -94.50786 17742 ft 457 kts 82°
2026-05-05 01:12 29.98427 -94.47111 18281 ft 461 kts 82°
2026-05-05 01:12 29.98692 -94.43398 18734 ft 466 kts 82°
2026-05-05 01:12 29.98957 -94.39658 19202 ft 471 kts 82°
2026-05-05 01:13 29.99224 -94.35878 19698 ft 475 kts 82°
2026-05-05 01:13 29.99494 -94.32058 20177 ft 479 kts 82°
2026-05-05 01:13 29.99802 -94.28216 20664 ft 482 kts 79°
2026-05-05 01:13 30.00244 -94.24368 21130 ft 485 kts 77°
2026-05-05 01:14 30.00575 -94.21811 21446 ft 488 kts 77°
2026-05-05 01:14 30.01088 -94.17927 21932 ft 492 kts 77°
2026-05-05 01:14 30.01593 -94.14008 22397 ft 496 kts 77°
2026-05-05 01:14 30.02083 -94.10041 22862 ft 501 kts 77°
2026-05-05 01:15 30.02562 -94.06044 23304 ft 505 kts 77°
2026-05-05 01:15 30.03044 -94.01999 23699 ft 510 kts 77°
2026-05-05 01:15 30.03537 -93.97934 24078 ft 513 kts 76°
2026-05-05 01:15 30.04047 -93.93850 24457 ft 516 kts 76°
2026-05-05 01:16 30.04565 -93.89742 24856 ft 519 kts 76°
2026-05-05 01:16 30.05089 -93.85590 25221 ft 523 kts 76°
2026-05-05 01:16 30.05606 -93.81471 25572 ft 527 kts 76°
2026-05-05 01:16 30.06129 -93.77272 25927 ft 530 kts 76°
2026-05-05 01:17 30.06652 -93.73052 26298 ft 533 kts 76°
2026-05-05 01:17 30.07177 -93.68789 26656 ft 537 kts 76°
2026-05-05 01:17 30.07702 -93.64515 27000 ft 540 kts 75°
2026-05-05 01:17 30.08231 -93.60199 27346 ft 543 kts 75°
2026-05-05 01:18 30.08759 -93.55872 27686 ft 546 kts 75°
2026-05-05 01:18 30.09288 -93.51530 28017 ft 549 kts 75°
2026-05-05 01:18 30.09822 -93.47135 28339 ft 552 kts 75°
2026-05-05 01:18 30.10355 -93.42739 28662 ft 555 kts 75°
2026-05-05 01:19 30.10890 -93.38313 28964 ft 558 kts 75°
2026-05-05 01:19 30.11425 -93.33872 29254 ft 560 kts 75°
2026-05-05 01:19 30.11962 -93.29400 29508 ft 563 kts 75°
2026-05-05 01:19 30.12494 -93.24955 29806 ft 565 kts 75°
2026-05-05 01:20 30.13029 -93.20458 30184 ft 564 kts 75°
2026-05-05 01:20 30.13562 -93.15972 30566 ft 563 kts 75°
2026-05-05 01:20 30.14093 -93.11501 30945 ft 562 kts 75°
2026-05-05 01:20 30.14707 -93.07053 31317 ft 557 kts 71°
2026-05-05 01:21 30.15500 -93.02687 31657 ft 554 kts 69°
2026-05-05 01:21 30.16394 -92.98351 31988 ft 553 kts 68°
2026-05-05 01:21 30.17316 -92.94046 32340 ft 552 kts 68°
2026-05-05 01:21 30.18221 -92.89787 32651 ft 552 kts 68°
2026-05-05 01:22 30.19126 -92.85406 32924 ft 554 kts 69°
2026-05-05 01:22 30.19990 -92.81109 32974 ft 558 kts 69°
2026-05-05 01:22 30.21689 -92.72364 32993 ft 554 kts 69°
2026-05-05 01:23 30.23344 -92.63698 33006 ft 551 kts 69°
2026-05-05 01:23 30.24903 -92.55570 33011 ft 550 kts 69°
2026-05-05 01:24 30.26002 -92.49855 33013 ft 550 kts 69°
2026-05-05 01:24 30.27386 -92.42642 33015 ft 551 kts 69°
2026-05-05 01:25 30.29042 -92.33977 33008 ft 552 kts 69°
2026-05-05 01:26 30.30410 -92.26783 32995 ft 552 kts 69°
2026-05-05 01:27 30.32055 -92.18100 32997 ft 553 kts 69°
2026-05-05 01:27 30.33689 -92.09441 32997 ft 554 kts 69°
2026-05-05 01:28 30.35337 -92.00675 33000 ft 554 kts 69°
2026-05-05 01:28 30.36959 -91.92013 32996 ft 554 kts 69°
2026-05-05 01:29 30.38585 -91.83295 32997 ft 553 kts 69°
2026-05-05 01:29 30.39901 -91.76217 32995 ft 553 kts 69°
2026-05-05 01:30 30.41518 -91.67490 32994 ft 553 kts 69°
2026-05-05 01:30 30.42949 -91.59740 32992 ft 553 kts 69°
2026-05-05 01:31 30.44499 -91.51308 32992 ft 552 kts 69°
2026-05-05 01:31 30.46039 -91.42902 32999 ft 552 kts 69°
2026-05-05 01:32 30.47630 -91.34188 32996 ft 552 kts 69°
2026-05-05 01:32 30.49252 -91.25834 32992 ft 549 kts 66°
2026-05-05 01:33 30.51209 -91.17291 32992 ft 547 kts 65°
2026-05-05 01:33 30.53105 -91.09246 32993 ft 548 kts 65°
2026-05-05 01:34 30.55087 -91.00700 32993 ft 549 kts 66°
2026-05-05 01:34 30.57042 -90.92124 32999 ft 550 kts 66°
2026-05-05 01:35 30.58976 -90.83579 32997 ft 550 kts 66°
2026-05-05 01:35 30.60915 -90.74992 33008 ft 550 kts 66°
2026-05-05 01:36 30.62855 -90.66380 33005 ft 550 kts 66°
2026-05-05 01:36 30.64790 -90.57767 32999 ft 551 kts 66°
2026-05-05 01:37 30.66715 -90.49169 33001 ft 550 kts 66°
2026-05-05 01:37 30.68293 -90.42099 33003 ft 550 kts 66°
2026-05-05 01:38 30.68342 -90.41882 33003 ft 550 kts 66°
2026-05-05 01:39 30.70248 -90.33312 33007 ft 550 kts 66°
2026-05-05 01:39 30.72158 -90.24698 33001 ft 550 kts 66°
2026-05-05 01:40 30.73683 -90.17802 33017 ft 550 kts 66°
2026-05-05 01:40 30.75573 -90.09231 33019 ft 550 kts 66°
2026-05-05 01:41 30.77470 -90.00595 33023 ft 550 kts 66°
2026-05-05 01:41 30.79356 -89.91980 33025 ft 550 kts 66°